This demonstration page uses our WeatherBlox Daily Observations layout. Learn more.

Left ArrowRight Arrow

39.51506, -84.39828

Hourly Observations for May 19, 2017

Temp ( °F °C ) Dew Point ( °F °C ) Humidity (%) Winds ( mph kmh ) Pressure ( in mb ) Visibility ( mi km ) Precip ( " mm )
12:15 am 00:15 Mostly Cloudy with Drizzle 74 23.6 67 19.4 77 77 N N/A 29.94 1014 10 16 N/A
12:35 am 00:35 Mostly Cloudy 74 23.6 68 20 80 80 N N/A 29.94 1014 10 16 N/A
12:55 am 00:55 Mostly Cloudy 73 22.9 67 19.5 81 81 N N/A 29.94 1014 10 16 N/A
1:15 am 01:15 Mostly Cloudy 71 21.4 65 18.3 83 83 N N/A 29.94 1014 10 16 N/A
1:35 am 01:35 Mostly Cloudy 69 20.8 64 17.8 83 83 N N/A 29.94 1014 7 11 N/A
1:55 am 01:55 Mostly Cloudy 70 21.3 65 18.1 82 82 N 3 6 29.94 1014 10 16 N/A
2:15 am 02:15 Cloudy 74 23.1 67 19.4 80 80 NNW 7 11 29.97 1015 10 16 N/A
2:35 am 02:35 Mostly Cloudy 74 23.6 67 19.5 78 78 N 5 7 29.97 1015 10 16 N/A
2:55 am 02:55 Mostly Cloudy 71 21.9 64 17.7 77 77 NE 6 9 29.97 1015 10 16 N/A
3:15 am 03:15 Partly Cloudy 70 20.9 62 16.8 78 78 N N/A 29.97 1015 10 16 N/A
3:35 am 03:35 Mostly Cloudy 71 21.7 64 17.5 77 77 N N/A 29.97 1015 10 16 N/A
3:55 am 03:55 Mostly Cloudy 69 20.8 63 17.4 81 81 N N/A 29.97 1015 10 16 N/A
4:15 am 04:15 Cloudy with Heavy Rain 69 20.8 64 17.7 83 83 E 3 6 29.97 1015 5 8 N/A
4:35 am 04:35 Mostly Cloudy with Light Rain 69 20.8 64 17.9 84 84 N N/A 29.97 1015 10 16 N/A
4:55 am 04:55 Cloudy 69 20.8 64 17.9 84 84 N N/A 29.97 1015 7 11 N/A
5:15 am 05:15 Cloudy with Heavy Rain 69 20.8 65 18.1 85 85 N N/A 29.97 1015 3 4 N/A
5:35 am 05:35 Cloudy 69 20.8 64 18 84 84 W 3 6 29.97 1015 7 11 N/A
5:55 am 05:55 Cloudy with Light Rain 69 20.8 65 18.1 85 85 N N/A 29.97 1015 5 8 N/A
6:15 am 06:15 Hazy 69 20.8 64 18 84 84 N N/A 29.97 1015 5 8 N/A
6:35 am 06:35 Hazy 69 20.8 65 18.1 85 85 N N/A 29.97 1015 2 3 N/A
6:55 am 06:55 Mostly Cloudy with Haze 69 20.8 65 18.1 85 85 N N/A 30.00 1016 1 1 N/A
7:15 am 07:15 Cloudy with Haze 69 20.8 65 18.3 86 86 N N/A 30.00 1016 1 1 N/A
7:35 am 07:35 Hazy 69 20.8 65 18.4 86 86 N N/A 30.00 1016 3 4 N/A
7:55 am 07:55 Hazy 69 20.8 65 18.3 86 86 N N/A 30.00 1016 4 6 N/A
8:15 am 08:15 Sunny with Mist and Fog 72 22.3 68 19.8 86 86 N N/A 29.97 1015 5 8 N/A
8:35 am 08:35 Partly Cloudy 74 23.6 69 20.6 83 83 N N/A 29.97 1015 7 11 N/A
8:55 am 08:55 Sunny 74 23.6 67 19.6 78 78 N N/A 29.97 1015 10 16 N/A
9:15 am 09:15 Sunny 76 24.3 67 19.5 75 75 SSW 3 6 30.00 1016 10 16 N/A
9:35 am 09:35 Partly Cloudy 75 23.7 67 19.5 77 77 S 5 7 30.00 1016 10 16 N/A
9:55 am 09:55 Sunny 77 25.1 69 20.4 75 75 SSW 7 11 30.00 1016 10 16 N/A
10:15 am 10:15 Mostly Cloudy 77 25.1 68 20.2 74 74 S 6 9 30.00 1016 10 16 N/A
10:35 am 10:35 Partly Cloudy 77 25.1 68 19.9 73 73 S 5 7 30.00 1016 10 16 N/A
10:55 am 10:55 Partly Cloudy 78 25.3 68 20 73 73 S 5 7 30.00 1016 10 16 N/A
11:15 am 11:15 Mostly Cloudy 80 26.5 69 20.7 71 71 N N/A 30.00 1016 10 16 N/A
11:35 am 11:35 Partly Cloudy 80 26.5 69 20.4 69 69 N N/A 30.00 1016 10 16 N/A
11:55 am 11:55 Sunny 80 26.6 67 19.6 66 66 SSW 5 7 30.00 1016 10 16 N/A
12:15 pm 12:15 Sunny 81 27.2 67 19.5 63 63 N N/A 30.00 1016 10 16 N/A
12:35 pm 12:35 Sunny 82 28 68 20.2 63 63 S 6 9 29.94 1014 10 16 N/A
12:55 pm 12:55 Sunny 82 28 67 19.2 59 59 S 6 9 29.94 1014 10 16 N/A
1:15 pm 13:15 Sunny 83 28.1 67 19.4 59 59 SSW 7 11 29.91 1013 10 16 N/A
1:35 pm 13:35 Sunny 83 28.6 66 18.9 56 56 SSW 12 19 29.91 1013 10 16 N/A
1:55 pm 13:55 Partly Cloudy 84 29.1 64 18 51 51 S 10 17 29.91 1013 10 16 N/A
2:15 pm 14:15 Partly Cloudy 84 29 63 17.3 49 49 S 9 15 29.88 1012 10 16 N/A
2:35 pm 14:35 Sunny 84 28.7 61 16 46 46 S 13 20 29.88 1012 10 16 N/A
2:55 pm 14:55 Sunny 84 28.9 59 15 43 43 SSW 15 24 29.88 1012 10 16 N/A
3:15 pm 15:15 Sunny 83 28.5 60 15.3 45 45 S 13 20 29.88 1012 10 16 N/A
3:35 pm 15:35 Partly Cloudy 82 28 60 15.8 47 47 SSW 14 22 29.88 1012 10 16 N/A
3:55 pm 15:55 Cloudy with Light Rain 80 26.5 63 17.4 57 57 SW 10 17 29.91 1013 10 16 N/A
4:15 pm 16:15 Cloudy with Light Rain 77 25.1 64 18 65 65 WSW 13 20 29.94 1014 10 16 N/A
4:35 pm 16:35 Cloudy with Heavy Rain 72 22.3 64 17.5 74 74 WSW 22 35 30.00 1016 3 5 N/A
4:55 pm 16:55 Cloudy with Light Rain 69 20.8 64 17.7 83 83 S 5 7 29.97 1015 7 11 N/A
5:15 pm 17:15 Mostly Cloudy with Light Rain 69 20.8 64 17.8 83 83 N N/A 29.94 1014 10 16 N/A
5:35 pm 17:35 Partly Cloudy 69 20.8 64 18 84 84 N N/A 29.94 1014 10 16 N/A
5:55 pm 17:55 Sunny 69 20.8 64 18 84 84 N N/A 29.97 1015 7 11 N/A
6:15 pm 18:15 Partly Cloudy 69 20.8 65 18.1 85 85 N N/A 29.97 1015 10 16 N/A
6:35 pm 18:35 Sunny 69 20.8 64 18 84 84 N N/A 29.97 1015 10 16 N/A
6:55 pm 18:55 Sunny 69 20.8 64 18 84 84 NNE 3 6 29.94 1014 10 16 N/A
7:15 pm 19:15 Sunny 69 20.8 64 17.8 83 83 N N/A 29.97 1015 10 16 N/A
7:35 pm 19:35 Partly Cloudy 74 23.1 68 19.8 82 82 S 3 6 30.00 1016 10 16 N/A
7:55 pm 19:55 Partly Cloudy 74 23.6 67 19.5 78 78 N N/A 29.97 1015 10 16 N/A
8:15 pm 20:15 Mostly Cloudy 73 23 67 19.2 79 79 S 3 6 30.00 1016 10 16 N/A
8:35 pm 20:35 Mostly Cloudy 71 21.6 65 18.1 81 81 S 6 9 30.03 1017 10 16 N/A
8:55 pm 20:55 Mostly Cloudy 69 20.8 63 17.2 80 80 N N/A 30.03 1017 10 16 N/A
9:15 pm 21:15 Partly Cloudy 69 20.8 63 17 79 79 N N/A 30.03 1017 10 16 N/A
9:35 pm 21:35 Clear 69 20.8 64 17.6 82 82 N N/A 30.03 1017 10 16 N/A
9:55 pm 21:55 Mostly Cloudy 69 20.8 64 18 84 84 N N/A 30.03 1017 10 16 N/A
10:15 pm 22:15 Cloudy 69 20.8 64 17.6 82 82 N N/A 30.03 1017 10 16 N/A
10:35 pm 22:35 Partly Cloudy 69 20.8 65 18.1 85 85 N 5 7 30.03 1017 10 16 N/A
10:55 pm 22:55 Partly Cloudy 69 20.8 65 18.2 85 85 N 6 9 30.03 1017 7 11 N/A
11:15 pm 23:15 Mostly Cloudy 67 19.5 62 16.6 83 83 N 7 11 30.03 1017 7 11 N/A
11:35 pm 23:35 Cloudy 65 18.1 59 15.1 83 83 NNE 9 15 30.03 1017 7 11 N/A
11:55 pm 23:55 Cloudy 63 17.1 57 14.1 83 83 N 9 15 30.06 1018 7 11 N/A

Powered by AerisWeather